Location: Unspecified
(51.6250°N, 0.8230°E)
Time: 09:40:58
(UTC+01:00)

Intercosmos 25 - Visible Passes

Search period start: 21 October 2017 00:00
Search period end: 30 October 2017 23:00
Orbit: 436 x 2883 km, 82.6° (Epoch: 20 October)

Date Brightness Start Highest point End Pass type
(mag) Time Alt. Az. Time Alt. Az. Time Alt. Az.
21 Oct 6.7 00:13:40 46° WNW 00:14:29 46° WNW 00:24:16 10° N visible
21 Oct 7.7 02:13:16 13° WNW 02:17:55 16° NW 02:23:33 10° N visible
21 Oct 7.0 20:09:43 24° ENE 20:09:43 24° ENE 20:17:07 10° NNE visible
21 Oct 6.1 22:09:20 71° ENE 22:09:20 71° ENE 22:18:52 10° NNE visible
22 Oct 6.7 00:08:55 45° WNW 00:09:43 45° WNW 00:19:15 10° N visible
22 Oct 7.7 02:08:32 12° WNW 02:13:07 15° NW 02:18:22 10° N visible
22 Oct 6.9 20:04:57 24° ENE 20:04:57 24° ENE 20:12:08 10° NNE visible
22 Oct 6.0 22:04:34 71° ENE 22:04:34 71° ENE 22:13:53 10° NNE visible
23 Oct 6.7 00:04:10 43° WNW 00:04:56 44° WNW 00:14:14 10° N visible
23 Oct 7.7 02:03:46 11° WNW 02:08:18 14° NW 02:13:08 10° NNW visible
23 Oct 6.9 20:00:10 24° ENE 20:00:10 24° ENE 20:07:08 10° NNE visible
23 Oct 6.0 21:59:46 72° ENE 21:59:46 72° ENE 22:08:53 10° NNE visible
23 Oct 6.7 23:59:22 42° WNW 00:00:09 43° WNW 00:09:12 10° N visible
24 Oct 7.7 01:58:58 11° WNW 02:03:29 14° NW 02:07:53 10° NNW visible
24 Oct 6.8 19:55:21 24° ENE 19:55:21 24° ENE 20:02:08 10° NNE visible
24 Oct 5.9 21:54:56 73° ENE 21:54:56 73° ENE 22:03:52 10° NNE visible
24 Oct 6.7 23:54:32 41° WNW 23:55:21 42° WNW 00:04:09 10° N visible
25 Oct 7.7 01:54:08 10° WNW 01:58:39 13° NW 02:02:35 10° NNW visible
25 Oct 6.8 19:50:29 24° ENE 19:50:29 24° ENE 19:57:07 10° NNE visible
25 Oct 5.9 21:50:04 73° ENE 21:50:04 73° ENE 21:58:51 10° NNE visible
25 Oct 6.7 23:49:40 40° WNW 23:50:32 41° WNW 23:59:06 10° N visible
26 Oct 7.7 01:49:55 10° WNW 01:53:49 12° NW 01:57:12 10° NNW visible
26 Oct 6.8 19:45:34 24° ENE 19:45:34 24° ENE 19:52:06 10° NNE visible
26 Oct 5.8 21:45:10 74° ENE 21:45:10 74° ENE 21:53:51 10° NNE visible
26 Oct 6.7 23:44:45 39° WNW 23:45:43 39° WNW 23:54:02 10° N visible
27 Oct 7.7 01:45:53 10° WNW 01:48:58 11° NW 01:51:43 10° NNW visible
27 Oct 6.7 19:40:36 24° ENE 19:40:36 24° ENE 19:47:04 10° NNE visible
27 Oct 5.7 21:25:45 10° S 21:40:11 75° E 21:48:49 10° NNE visible
27 Oct 6.7 23:39:45 38° W 23:40:53 38° WNW 23:48:58 10° N visible
28 Oct 7.7 01:42:01 10° NW 01:44:06 11° NW 01:46:01 10° NNW visible
28 Oct 6.7 19:35:32 24° ENE 19:35:32 24° ENE 19:42:02 10° NNE visible
28 Oct 5.7 21:21:08 10° S 21:35:06 77° E 21:43:46 10° NNE visible
28 Oct 6.7 23:34:41 36° W 23:36:03 37° WNW 23:43:53 10° N visible
29 Oct 6.6 18:21:19 10° SE 18:30:18 24° E 18:36:59 10° NNE visible
29 Oct 5.7 20:16:30 10° S 20:30:14 77° E 20:38:43 10° NNE visible
29 Oct 6.7 22:19:44 10° SW 22:31:10 36° WNW 22:38:47 10° N visible
30 Oct 6.6 18:16:36 10° SE 18:25:23 23° E 18:31:56 10° NNE visible
30 Oct 5.6 20:11:53 10° S 20:25:22 78° E 20:33:40 10° NNE visible
30 Oct 6.7 22:15:14 10° SW 22:26:19 35° WNW 22:33:41 10° N visible
